| time (UTC) | temp F | wind direction | speed knots | gust knots | rain 1hr in | rain 24hr in | rain mn in | humidity % | barometer mb |
| 20260906114601 | 72 | 308 | 0.0 | 0.0 | 0.00 | 0.26 | 0.00 | 97 | 1012.8 |
| 20260906114020 | 71 | 308 | 0.0 | 0.0 | 0.00 | 0.26 | 0.00 | 97 | 1012.8 |
| 20260906113526 | 71 | 306 | 0.0 | 0.0 | 0.00 | 0.26 | 0.00 | 97 | 1012.7 |
| 20260906113101 | 71 | 306 | 0.0 | 0.0 | 0.00 | 0.26 | 0.00 | 97 | 1012.8 |
| 20260906112520 | 71 | 305 | 0.0 | 0.0 | 0.00 | 0.26 | 0.00 | 97 | 1012.7 |
| 20260906112025 | 71 | 305 | 0.0 | 0.0 | 0.00 | 0.26 | 0.00 | 97 | 1012.6 |
| 20260906111608 | 71 | 306 | 0.0 | 0.0 | 0.00 | 0.26 | 0.00 | 97 | 1012.6 |
| 20260906111024 | 71 | 306 | 0.0 | 0.0 | 0.00 | 0.26 | 0.00 | 97 | 1012.5 |
| 20260906110525 | 71 | 306 | 0.0 | 0.0 | 0.00 | 0.26 | 0.00 | 97 | 1012.4 |
| 20260906110103 | 71 | 306 | 0.0 | 0.0 | 0.00 | 0.26 | 0.00 | 96 | 1012.3 |
| 20260906105523 | 71 | 306 | 0.0 | 0.0 | 0.00 | 0.26 | 0.00 | 96 | 1012.3 |
| 20260906105024 | 71 | 306 | 0.0 | 0.0 | 0.00 | 0.26 | 0.00 | 96 | 1012.4 |
| 20260906104600 | 71 | 306 | 0.0 | 0.0 | 0.00 | 0.26 | 0.00 | 96 | 1012.3 |
| 20260906104021 | 71 | 306 | 0.0 | 0.0 | 0.00 | 0.26 | 0.00 | 96 | 1012.2 |
| 20260906103518 | 71 | 306 | 0.0 | 0.0 | 0.00 | 0.26 | 0.00 | 96 | 1012.1 |
| 20260906103055 | 71 | 305 | 0.0 | 0.9 | 0.00 | 0.26 | 0.00 | 96 | 1012.1 |
| 20260906102520 | 71 | 305 | 0.0 | 1.7 | 0.00 | 0.26 | 0.00 | 96 | 1011.9 |
| 20260906102029 | 71 | 305 | 0.0 | 1.7 | 0.00 | 0.26 | 0.00 | 96 | 1011.9 |
| 20260906101552 | 71 | 305 | 0.0 | 1.7 | 0.00 | 0.26 | 0.00 | 96 | 1011.8 |
| 20260906101026 | 71 | 305 | 0.0 | 1.7 | 0.00 | 0.26 | 0.00 | 96 | 1011.9 |
| 20260906100526 | 71 | 305 | 0.0 | 0.0 | 0.00 | 0.26 | 0.00 | 96 | 1011.8 |
| 20260906100051 | 72 | 305 | 0.0 | 0.0 | 0.00 | 0.26 | 0.00 | 96 | 1011.7 |
| 20260906095523 | 71 | 305 | 0.0 | 0.0 | 0.00 | 0.26 | 0.00 | 96 | 1011.8 |
| 20260906095023 | 72 | 305 | 0.0 | 0.0 | 0.00 | 0.26 | 0.00 | 96 | 1011.7 |
| 20260906094559 | 72 | 303 | 0.0 | 0.0 | 0.00 | 0.26 | 0.00 | 96 | 1011.6 |
| 20260906094021 | 72 | 303 | 0.0 | 0.0 | 0.00 | 0.26 | 0.00 | 96 | 1011.7 |
| 20260906093522 | 72 | 303 | 0.0 | 0.0 | 0.00 | 0.26 | 0.00 | 96 | 1011.6 |
| 20260906093106 | 72 | 303 | 0.0 | 0.0 | 0.00 | 0.26 | 0.00 | 96 | 1011.5 |
| 20260906092519 | 71 | 303 | 0.0 | 0.0 | 0.00 | 0.26 | 0.00 | 96 | 1011.5 |
| 20260906092025 | 72 | 303 | 0.0 | 0.0 | 0.00 | 0.26 | 0.00 | 96 | 1011.5 |
| 20260906091615 | 71 | 303 | 0.0 | 0.0 | 0.00 | 0.26 | 0.00 | 96 | 1011.4 |
| 20260906091023 | 72 | 303 | 0.0 | 0.0 | 0.00 | 0.26 | 0.00 | 96 | 1011.4 |
| 20260906090523 | 72 | 303 | 0.0 | 0.0 | 0.00 | 0.26 | 0.00 | 96 | 1011.5 |
| 20260906090100 | 71 | 303 | 0.0 | 0.9 | 0.00 | 0.26 | 0.00 | 96 | 1011.5 |
| 20260906085526 | 71 | 303 | 0.0 | 0.9 | 0.00 | 0.26 | 0.00 | 96 | 1011.5 |
| 20260906085023 | 71 | 303 | 0.0 | 0.0 | 0.00 | 0.26 | 0.00 | 96 | 1011.5 |
| 20260906084605 | 71 | 303 | 0.0 | 0.0 | 0.00 | 0.26 | 0.00 | 96 | 1011.7 |
| 20260906084018 | 71 | 303 | 0.0 | 0.0 | 0.00 | 0.26 | 0.00 | 96 | 1011.7 |
| 20260906083520 | 71 | 303 | 0.0 | 0.0 | 0.00 | 0.26 | 0.00 | 96 | 1011.7 |
| 20260906083057 | 71 | 303 | 0.0 | 0.0 | 0.00 | 0.26 | 0.00 | 96 | 1011.6 |
| 20260906082524 | 71 | 303 | 0.0 | 0.0 | 0.00 | 0.26 | 0.00 | 96 | 1011.5 |
| 20260906082024 | 71 | 303 | 0.0 | 0.9 | 0.00 | 0.26 | 0.00 | 96 | 1011.6 |
| 20260906081553 | 72 | 303 | 0.0 | 0.9 | 0.00 | 0.26 | 0.00 | 96 | 1011.5 |
| 20260906081024 | 72 | 303 | 0.0 | 0.9 | 0.00 | 0.26 | 0.00 | 96 | 1011.6 |
| 20260906080525 | 71 | 303 | 0.0 | 0.9 | 0.00 | 0.26 | 0.00 | 96 | 1011.3 |
| 20260906080110 | 71 | 303 | 0.0 | 0.9 | 0.00 | 0.26 | 0.00 | 96 | 1011.4 |
| 20260906075525 | 72 | 303 | 0.0 | 0.9 | 0.00 | 0.26 | 0.00 | 96 | 1011.4 |
| 20260906075028 | 72 | 303 | 0.0 | 0.0 | 0.00 | 0.26 | 0.00 | 96 | 1011.4 |
| 20260906074600 | 72 | 303 | 0.0 | 0.9 | 0.00 | 0.26 | 0.00 | 96 | 1011.5 |
| 20260906074024 | 72 | 303 | 0.0 | 1.7 | 0.00 | 0.26 | 0.00 | 96 | 1011.4 |
| 20260906073519 | 72 | 303 | 0.0 | 1.7 | 0.00 | 0.26 | 0.00 | 96 | 1011.3 |
| 20260906073054 | 72 | 303 | 0.0 | 1.7 | 0.00 | 0.26 | 0.00 | 96 | 1011.3 |
| 20260906072518 | 72 | 303 | 0.0 | 1.7 | 0.00 | 0.26 | 0.00 | 96 | 1011.2 |
| 20260906072024 | 72 | 305 | 0.0 | 0.9 | 0.00 | 0.26 | 0.00 | 96 | 1011.2 |
| 20260906071608 | 72 | 305 | 0.0 | 0.0 | 0.00 | 0.26 | 0.00 | 96 | 1011.3 |
| 20260906071025 | 72 | 305 | 0.0 | 0.0 | 0.00 | 0.26 | 0.00 | 96 | 1011.2 |
| 20260906070519 | 72 | 305 | 0.0 | 0.0 | 0.00 | 0.26 | 0.00 | 96 | 1011.3 |
| 20260906070104 | 72 | 305 | 0.0 | 2.6 | 0.00 | 0.26 | 0.00 | 96 | 1011.4 |
| 20260906065524 | 72 | 305 | 0.9 | 2.6 | 0.00 | 0.26 | 0.00 | 96 | 1011.4 |
| 20260906065021 | 72 | 304 | 0.0 | 1.7 | 0.00 | 0.26 | 0.00 | 96 | 1011.4 |
| 20260906064606 | 72 | 303 | 0.0 | 1.7 | 0.00 | 0.26 | 0.00 | 96 | 1011.4 |
| 20260906064017 | 72 | 303 | 0.0 | 0.0 | 0.00 | 0.26 | 0.00 | 96 | 1011.4 |
| 20260906063522 | 72 | 302 | 0.0 | 0.0 | 0.00 | 0.26 | 0.00 | 96 | 1011.4 |
| 20260906063057 | 72 | 302 | 0.0 | 0.0 | 0.00 | 0.26 | 0.00 | 96 | 1011.5 |
| 20260906062524 | 72 | 302 | 0.0 | 0.0 | 0.00 | 0.26 | 0.00 | 96 | 1011.6 |
| 20260906062021 | 72 | 301 | 0.0 | 0.0 | 0.00 | 0.26 | 0.00 | 96 | 1011.6 |
| 20260906061558 | 73 | 301 | 0.0 | 1.7 | 0.00 | 0.26 | 0.00 | 96 | 1011.7 |
| 20260906061023 | 72 | 301 | 0.9 | 2.6 | 0.00 | 0.26 | 0.00 | 96 | 1011.7 |
| 20260906060520 | 73 | 301 | 0.0 | 2.6 | 0.00 | 0.26 | 0.00 | 96 | 1011.6 |
| 20260906060104 | 73 | 298 | 0.0 | 1.7 | 0.00 | 0.26 | 0.00 | 96 | 1011.6 |
| 20260906055525 | 73 | 298 | 0.0 | 2.6 | 0.00 | 0.26 | 0.00 | 96 | 1011.8 |
| 20260906055023 | 73 | 290 | 0.9 | 2.6 | 0.00 | 0.26 | 0.00 | 96 | 1011.7 |
| 20260906054556 | 73 | 272 | 0.0 | 0.0 | 0.00 | 0.26 | 0.00 | 96 | 1011.7 |
| 20260906054024 | 73 | 272 | 0.0 | 0.0 | 0.00 | 0.26 | 0.00 | 96 | 1011.7 |
| 20260906053520 | 73 | 272 | 0.0 | 2.6 | 0.00 | 0.26 | 0.00 | 95 | 1011.7 |
| 20260906053105 | 73 | 272 | 0.0 | 2.6 | 0.00 | 0.26 | 0.00 | 95 | 1011.6 |
| 20260906052526 | 73 | 271 | 0.0 | 1.7 | 0.00 | 0.26 | 0.00 | 95 | 1011.5 |
| 20260906052023 | 73 | 271 | 0.0 | 1.7 | 0.00 | 0.26 | 0.00 | 95 | 1011.7 |
| 20260906051609 | 73 | 271 | 0.0 | 1.7 | 0.00 | 0.26 | 0.00 | 96 | 1011.7 |
| 20260906051023 | 73 | 271 | 0.0 | 0.9 | 0.00 | 0.26 | 0.00 | 95 | 1011.6 |
| 20260906050526 | 73 | 271 | 0.0 | 1.7 | 0.00 | 0.26 | 0.00 | 95 | 1011.8 |
| 20260906045525 | 73 | 271 | 0.0 | 2.6 | 0.00 | 0.26 | 0.00 | 95 | 1011.8 |
| 20260906045022 | 74 | 270 | 0.0 | 0.0 | 0.00 | 0.26 | 0.00 | 95 | 1011.8 |
| 20260906044555 | 74 | 270 | 0.0 | 1.7 | 0.00 | 0.26 | 0.00 | 95 | 1011.8 |
| 20260906044026 | 74 | 269 | 0.0 | 4.3 | 0.00 | 0.26 | 0.00 | 95 | 1011.8 |
| 20260906043519 | 74 | 266 | 0.9 | 4.3 | 0.00 | 0.26 | 0.00 | 95 | 1011.9 |
| 20260906043103 | 74 | 301 | 0.0 | 2.6 | 0.00 | 0.26 | 0.00 | 95 | 1011.8 |
| 20260906042524 | 74 | 300 | 0.0 | 2.6 | 0.00 | 0.26 | 0.00 | 95 | 1011.9 |
| 20260906042024 | 74 | 297 | 0.0 | 3.5 | 0.00 | 0.26 | 0.00 | 95 | 1011.9 |
| 20260906041614 | 74 | 294 | 0.9 | 3.5 | 0.00 | 0.26 | 0.00 | 95 | 1012.0 |
| 20260906041027 | 74 | 308 | 0.0 | 3.5 | 0.00 | 0.26 | 0.00 | 95 | 1011.9 |
| 20260906040523 | 74 | 305 | 0.9 | 3.5 | 0.00 | 0.26 | 0.00 | 95 | 1011.9 |
| 20260906040110 | 74 | 271 | 0.0 | 3.5 | 0.00 | 0.26 | 0.00 | 95 | 1011.8 |
| 20260906035524 | 74 | 215 | 0.0 | 1.7 | 0.00 | 0.26 | 0.26 | 95 | 1011.7 |
| 20260906035019 | 74 | 215 | 0.0 | 1.7 | 0.00 | 0.26 | 0.26 | 95 | 1011.8 |
| 20260906034606 | 74 | 189 | 0.0 | 1.7 | 0.00 | 0.26 | 0.26 | 95 | 1011.9 |
| 20260906034021 | 74 | 189 | 0.0 | 0.9 | 0.00 | 0.26 | 0.26 | 95 | 1011.9 |
| 20260906033523 | 74 | 189 | 0.0 | 2.6 | 0.00 | 0.26 | 0.26 | 95 | 1012.0 |
| 20260906033107 | 74 | 189 | 0.0 | 2.6 | 0.00 | 0.26 | 0.26 | 95 | 1012.0 |
| 20260906032521 | 74 | 189 | 0.0 | 2.6 | 0.00 | 0.26 | 0.26 | 95 | 1012.0 |
| 20260906032023 | 74 | 185 | 0.0 | 1.7 | 0.00 | 0.26 | 0.26 | 95 | 1012.2 |
| 20260906031600 | 74 | 185 | 0.0 | 0.9 | 0.00 | 0.26 | 0.26 | 94 | 1012.2 |
| 20260906031021 | 74 | 184 | 0.0 | 0.0 | 0.00 | 0.26 | 0.26 | 94 | 1012.3 |
| 20260906030524 | 74 | 184 | 0.0 | 0.0 | 0.00 | 0.26 | 0.26 | 94 | 1012.1 |
| 20260906025524 | 74 | 185 | 0.0 | 2.6 | 0.00 | 0.26 | 0.26 | 94 | 1012.4 |
| 20260906025025 | 74 | 183 | 0.9 | 4.3 | 0.00 | 0.26 | 0.26 | 94 | 1012.6 |
| 20260906024630 | 74 | 174 | 0.9 | 4.3 | 0.00 | 0.26 | 0.26 | 94 | 1012.6 |
| 20260906024032 | 74 | 174 | 0.0 | 0.0 | 0.00 | 0.26 | 0.26 | 94 | 1012.5 |
| 20260906023518 | 74 | 174 | 0.0 | 2.6 | 0.00 | 0.26 | 0.26 | 94 | 1012.7 |
| 20260906023051 | 74 | 174 | 0.0 | 2.6 | 0.00 | 0.26 | 0.26 | 94 | 1012.7 |
| 20260906022519 | 74 | 174 | 0.0 | 2.6 | 0.00 | 0.26 | 0.26 | 94 | 1012.8 |
| 20260906022021 | 74 | 174 | 0.0 | 4.3 | 0.00 | 0.26 | 0.26 | 94 | 1012.7 |
| 20260906021609 | 74 | 175 | 0.0 | 5.2 | 0.00 | 0.26 | 0.26 | 94 | 1012.7 |
| 20260906021018 | 74 | 174 | 1.7 | 5.2 | 0.00 | 0.26 | 0.26 | 94 | 1012.7 |
| 20260906020524 | 74 | 181 | 0.9 | 4.3 | 0.00 | 0.26 | 0.26 | 94 | 1012.9 |
| 20260906015519 | 74 | 220 | 1.7 | 4.3 | 0.00 | 0.26 | 0.26 | 94 | 1013.1 |
| 20260906015018 | 74 | 204 | 1.7 | 4.3 | 0.00 | 0.26 | 0.26 | 94 | 1012.9 |
| 20260906014602 | 74 | 164 | 0.9 | 6.1 | 0.00 | 0.26 | 0.26 | 94 | 1013.1 |
| 20260906014023 | 74 | 191 | 1.7 | 5.2 | 0.00 | 0.26 | 0.26 | 94 | 1013.1 |
| 20260906013519 | 74 | 168 | 0.9 | 4.3 | 0.00 | 0.26 | 0.26 | 95 | 1013.0 |
| 20260906013104 | 74 | 185 | 0.9 | 4.3 | 0.00 | 0.26 | 0.26 | 95 | 1013.0 |
| 20260906012520 | 74 | 187 | 0.9 | 4.3 | 0.00 | 0.26 | 0.26 | 95 | 1012.9 |
| 20260906012020 | 74 | 170 | 0.9 | 5.2 | 0.01 | 0.26 | 0.26 | 95 | 1012.9 |
| 20260906011552 | 74 | 186 | 0.9 | 5.2 | 0.01 | 0.26 | 0.26 | 95 | 1013.0 |
| 20260906011018 | 74 | 170 | 1.7 | 5.2 | 0.01 | 0.26 | 0.26 | 95 | 1013.0 |
| 20260906010518 | 74 | 203 | 1.7 | 4.3 | 0.01 | 0.26 | 0.26 | 95 | 1013.2 |
| 20260906010119 | 74 | 170 | 1.7 | 3.5 | 0.02 | 0.26 | 0.26 | 94 | 1013.1 |
| 20260906005519 | 74 | 166 | 0.9 | 3.5 | 0.02 | 0.26 | 0.26 | 94 | 1013.0 |
| 20260906005021 | 74 | 160 | 1.7 | 3.5 | 0.02 | 0.26 | 0.26 | 94 | 1013.2 |
| 20260906004605 | 74 | 127 | 0.0 | 1.7 | 0.02 | 0.26 | 0.26 | 95 | 1013.2 |
| 20260906004027 | 74 | 126 | 0.0 | 0.9 | 0.02 | 0.26 | 0.26 | 95 | 1013.3 |
| 20260906003519 | 74 | 126 | 0.0 | 0.9 | 0.02 | 0.26 | 0.26 | 94 | 1013.3 |
| 20260906003110 | 74 | 126 | 0.0 | 1.7 | 0.02 | 0.26 | 0.26 | 94 | 1013.3 |
| 20260906002520 | 74 | 126 | 0.0 | 2.6 | 0.01 | 0.26 | 0.26 | 94 | 1013.3 |
| 20260906002018 | 74 | 126 | 0.9 | 5.2 | 0.01 | 0.26 | 0.26 | 94 | 1013.2 |
| 20260906001553 | 74 | 122 | 0.9 | 5.2 | 0.01 | 0.26 | 0.26 | 94 | 1013.1 |
| 20260906001019 | 74 | 123 | 1.7 | 5.2 | 0.02 | 0.26 | 0.26 | 94 | 1012.9 |
| 20260906000523 | 74 | 120 | 0.9 | 6.1 | 0.03 | 0.25 | 0.25 | 94 | 1013.1 |
| 20260905235519 | 74 | 170 | 2.6 | 3.5 | 0.11 | 0.25 | 0.25 | 93 | 1012.8 |
| 20260905235017 | 74 | 99 | 0.0 | 2.6 | 0.13 | 0.25 | 0.25 | 93 | 1013.0 |
| 20260905234606 | 74 | 99 | 0.0 | 2.6 | 0.16 | 0.25 | 0.25 | 93 | 1012.5 |
| 20260905234023 | 74 | 316 | 0.0 | 2.6 | 0.25 | 0.25 | 0.25 | 93 | 1012.2 |
| 20260905233518 | 74 | 313 | 0.9 | 5.2 | 0.25 | 0.25 | 0.25 | 93 | 1012.1 |
| 20260905233053 | 74 | 308 | 0.9 | 9.6 | 0.25 | 0.25 | 0.25 | 92 | 1011.6 |
| 20260905232521 | 74 | 302 | 2.6 | 9.6 | 0.25 | 0.25 | 0.25 | 92 | 1012.1 |
| 20260905232022 | 74 | 254 | 2.6 | 8.7 | 0.25 | 0.25 | 0.25 | 92 | 1012.3 |
| 20260905231552 | 75 | 278 | 1.7 | 9.6 | 0.25 | 0.25 | 0.25 | 91 | 1012.3 |
| 20260905231020 | 75 | 272 | 2.6 | 9.6 | 0.24 | 0.24 | 0.24 | 90 | 1012.5 |
| 20260905230519 | 75 | 319 | 0.9 | 4.3 | 0.22 | 0.22 | 0.22 | 89 | 1012.6 |
| 20260905230053 | 75 | 289 | 0.9 | 8.7 | 0.18 | 0.18 | 0.18 | 88 | 1012.9 |
| 20260905225517 | 76 | 321 | 2.6 | 13.0 | 0.14 | 0.14 | 0.14 | 85 | 1012.9 |
| 20260905225017 | 77 | 322 | 5.2 | 21.7 | 0.12 | 0.12 | 0.12 | 81 | 1012.6 |
| 20260905224556 | 80 | 307 | 7.0 | 21.7 | 0.06 | 0.06 | 0.06 | 76 | 1012.4 |
| 20260905224018 | 83 | 36 | 3.5 | 17.4 | 0.00 | 0.00 | 0.00 | 71 | 1012.0 |
| 20260905223518 | 85 | 324 | 5.2 | 27.8 | 0.00 | 0.00 | 0.00 | 70 | 1012.4 |
| 20260905223055 | 88 | 259 | 3.5 | 21.7 | 0.00 | 0.00 | 0.00 | 78 | 1012.5 |
| 20260905222523 | 89 | 235 | 2.6 | 8.7 | 0.00 | 0.00 | 0.00 | 78 | 1011.0 |
| 20260905222018 | 89 | 193 | 4.3 | 8.7 | 0.00 | 0.00 | 0.00 | 77 | 1010.3 |
| 20260905221552 | 90 | 283 | 1.7 | 7.8 | 0.00 | 0.00 | 0.00 | 76 | 1010.7 |
| 20260905221018 | 90 | 226 | 3.5 | 6.1 | 0.00 | 0.00 | 0.00 | 76 | 1010.5 |
| 20260905220518 | 90 | 196 | 2.6 | 6.1 | 0.00 | 0.00 | 0.00 | 76 | 1010.8 |
| 20260905220051 | 90 | 210 | 3.5 | 6.1 | 0.00 | 0.00 | 0.00 | 75 | 1010.8 |
| 20260905215518 | 90 | 269 | 1.7 | 7.8 | 0.00 | 0.00 | 0.00 | 75 | 1011.4 |
| 20260905215023 | 91 | 264 | 0.9 | 7.8 | 0.00 | 0.00 | 0.00 | 75 | 1011.4 |
| 20260905214558 | 91 | 221 | 2.6 | 7.0 | 0.00 | 0.00 | 0.00 | 74 | 1010.9 |
| 20260905214018 | 91 | 253 | 2.6 | 7.8 | 0.00 | 0.00 | 0.00 | 74 | 1011.1 |
| 20260905213520 | 91 | 237 | 1.7 | 7.8 | 0.00 | 0.00 | 0.00 | 73 | 1011.1 |
| 20260905213054 | 92 | 220 | 4.3 | 8.7 | 0.00 | 0.00 | 0.00 | 73 | 1010.9 |
| 20260905212523 | 92 | 197 | 2.6 | 8.7 | 0.00 | 0.00 | 0.00 | 73 | 1010.9 |
| 20260905212019 | 92 | 262 | 1.7 | 7.0 | 0.00 | 0.00 | 0.00 | 74 | 1010.9 |
| 20260905211606 | 92 | 258 | 3.5 | 8.7 | 0.00 | 0.00 | 0.00 | 72 | 1011.0 |
| 20260905211025 | 92 | 234 | 4.3 | 8.7 | 0.00 | 0.00 | 0.00 | 72 | 1011.0 |
| 20260905210516 | 93 | 302 | 1.7 | 13.0 | 0.00 | 0.00 | 0.00 | 72 | 1011.0 |
| 20260905210058 | 93 | 246 | 2.6 | 9.6 | 0.00 | 0.00 | 0.00 | 71 | 1011.0 |
| 20260905205522 | 94 | 211 | 2.6 | 7.8 | 0.00 | 0.00 | 0.00 | 70 | 1010.8 |
| 20260905205018 | 94 | 210 | 3.5 | 7.0 | 0.00 | 0.00 | 0.00 | 70 | 1010.8 |
| 20260905204600 | 94 | 274 | 2.6 | 7.8 | 0.00 | 0.00 | 0.00 | 70 | 1010.8 |
| 20260905204018 | 94 | 237 | 2.6 | 7.8 | 0.00 | 0.00 | 0.00 | 70 | 1010.8 |
| 20260905203518 | 94 | 276 | 1.7 | 6.1 | 0.00 | 0.00 | 0.00 | 70 | 1010.8 |
| 20260905203100 | 94 | 217 | 3.5 | 5.2 | 0.00 | 0.00 | 0.00 | 70 | 1010.6 |
| 20260905202519 | 94 | 205 | 1.7 | 7.8 | 0.00 | 0.00 | 0.00 | 70 | 1010.7 |
| 20260905202019 | 93 | 267 | 2.6 | 7.8 | 0.00 | 0.00 | 0.00 | 70 | 1010.8 |
| 20260905201554 | 94 | 267 | 0.9 | 3.5 | 0.00 | 0.00 | 0.00 | 68 | 1010.8 |
| 20260905201022 | 93 | 305 | 0.9 | 3.5 | 0.00 | 0.00 | 0.00 | 68 | 1010.9 |
| 20260905200519 | 93 | 301 | 0.0 | 4.3 | 0.00 | 0.00 | 0.00 | 69 | 1010.9 |
| 20260905200108 | 93 | 309 | 1.7 | 4.3 | 0.00 | 0.00 | 0.00 | 68 | 1010.8 |
| 20260905195521 | 93 | 333 | 0.9 | 3.5 | 0.00 | 0.00 | 0.00 | 68 | 1010.8 |
| 20260905195023 | 94 | 288 | 0.0 | 3.5 | 0.00 | 0.00 | 0.00 | 67 | 1010.8 |
| 20260905194601 | 95 | 289 | 0.9 | 6.1 | 0.00 | 0.00 | 0.00 | 63 | 1010.9 |
| 20260905194021 | 95 | 320 | 1.7 | 6.1 | 0.00 | 0.00 | 0.00 | 65 | 1011.1 |
| 20260905193519 | 95 | 323 | 1.7 | 8.7 | 0.00 | 0.00 | 0.00 | 63 | 1011.0 |
| 20260905193110 | 94 | 312 | 2.6 | 8.7 | 0.00 | 0.00 | 0.00 | 65 | 1011.2 |
| 20260905192520 | 95 | 266 | 0.0 | 7.0 | 0.00 | 0.00 | 0.00 | 65 | 1011.3 |
| 20260905192020 | 97 | 328 | 1.7 | 8.7 | 0.00 | 0.00 | 0.00 | 61 | 1011.4 |
| 20260905191611 | 97 | 277 | 1.7 | 9.6 | 0.00 | 0.00 | 0.00 | 62 | 1011.5 |
| 20260905191017 | 96 | 297 | 2.6 | 9.6 | 0.00 | 0.00 | 0.00 | 62 | 1011.8 |
| 20260905190517 | 95 | 307 | 1.7 | 5.2 | 0.00 | 0.00 | 0.00 | 63 | 1012.1 |
| 20260905185523 | 98 | 276 | 1.7 | 9.6 | 0.00 | 0.00 | 0.00 | 60 | 1012.4 |
| 20260905185022 | 96 | 287 | 2.6 | 9.6 | 0.00 | 0.00 | 0.00 | 62 | 1012.4 |
| 20260905184609 | 97 | 252 | 2.6 | 8.7 | 0.00 | 0.00 | 0.00 | 62 | 1012.6 |
| 20260905184018 | 97 | 331 | 2.6 | 8.7 | 0.00 | 0.00 | 0.00 | 62 | 1012.9 |
| 20260905183520 | 97 | 333 | 1.7 | 8.7 | 0.00 | 0.00 | 0.00 | 63 | 1013.0 |
| 20260905183105 | 97 | 322 | 0.9 | 8.7 | 0.00 | 0.00 | 0.00 | 63 | 1013.0 |
| 20260905182518 | 96 | 293 | 1.7 | 8.7 | 0.00 | 0.00 | 0.00 | 61 | 1013.2 |
| 20260905182020 | 98 | 289 | 1.7 | 8.7 | 0.00 | 0.00 | 0.00 | 61 | 1013.3 |
| 20260905181605 | 99 | 253 | 1.7 | 7.0 | 0.00 | 0.00 | 0.00 | 60 | 1013.2 |
| 20260905181019 | 98 | 268 | 1.7 | 8.7 | 0.00 | 0.00 | 0.00 | 60 | 1013.2 |
| 20260905180519 | 99 | 268 | 0.9 | 8.7 | 0.00 | 0.00 | 0.00 | 59 | 1013.4 |
| 20260905175525 | 97 | 230 | 1.7 | 9.6 | 0.00 | 0.00 | 0.00 | 61 | 1013.7 |
| 20260905175020 | 98 | 237 | 0.9 | 7.8 | 0.00 | 0.00 | 0.00 | 62 | 1013.8 |
| 20260905174556 | 97 | 260 | 2.6 | 7.8 | 0.00 | 0.00 | 0.00 | 61 | 1013.8 |
| 20260905174020 | 97 | 318 | 1.7 | 8.7 | 0.00 | 0.00 | 0.00 | 62 | 1013.8 |
| 20260905173520 | 97 | 266 | 1.7 | 8.7 | 0.00 | 0.00 | 0.00 | 61 | 1013.9 |
| 20260905173106 | 97 | 56 | 1.7 | 7.0 | 0.00 | 0.00 | 0.00 | 61 | 1013.8 |
| 20260905172519 | 97 | 205 | 1.7 | 7.8 | 0.00 | 0.00 | 0.00 | 62 | 1013.9 |
| 20260905172018 | 96 | 238 | 1.7 | 8.7 | 0.00 | 0.00 | 0.00 | 66 | 1013.8 |
| 20260905171551 | 95 | 318 | 2.6 | 8.7 | 0.00 | 0.00 | 0.00 | 65 | 1013.8 |
| 20260905171017 | 96 | 302 | 1.7 | 8.7 | 0.00 | 0.00 | 0.00 | 65 | 1013.8 |
| 20260905170519 | 96 | 274 | 1.7 | 8.7 | 0.00 | 0.00 | 0.00 | 63 | 1014.1 |
| 20260905170105 | 96 | 258 | 0.9 | 8.7 | 0.00 | 0.00 | 0.00 | 66 | 1014.2 |
| 20260905165525 | 96 | 276 | 0.9 | 8.7 | 0.00 | 0.00 | 0.00 | 64 | 1014.2 |
| 20260905165019 | 95 | 324 | 1.7 | 6.1 | 0.00 | 0.00 | 0.00 | 67 | 1014.1 |
| 20260905164555 | 94 | 313 | 2.6 | 7.8 | 0.00 | 0.00 | 0.00 | 66 | 1014.3 |
| 20260905164018 | 95 | 238 | 1.7 | 7.8 | 0.00 | 0.00 | 0.00 | 67 | 1014.2 |
| 20260905163526 | 95 | 274 | 2.6 | 7.8 | 0.00 | 0.00 | 0.00 | 64 | 1014.3 |
| 20260905163111 | 95 | 238 | 1.7 | 9.6 | 0.00 | 0.00 | 0.00 | 67 | 1014.4 |
| 20260905162524 | 95 | 101 | 2.6 | 9.6 | 0.00 | 0.00 | 0.00 | 67 | 1014.5 |
| 20260905162018 | 94 | 234 | 3.5 | 9.6 | 0.00 | 0.00 | 0.00 | 67 | 1014.6 |
| 20260905161604 | 94 | 229 | 1.7 | 8.7 | 0.00 | 0.00 | 0.00 | 67 | 1014.5 |
| 20260905161020 | 94 | 320 | 3.5 | 8.7 | 0.00 | 0.00 | 0.00 | 67 | 1014.6 |
| 20260905160521 | 93 | 297 | 4.3 | 9.6 | 0.00 | 0.00 | 0.00 | 69 | 1014.6 |
| 20260905160104 | 94 | 326 | 1.7 | 10.4 | 0.00 | 0.00 | 0.00 | 69 | 1014.7 |
| 20260905155520 | 93 | 262 | 1.7 | 10.4 | 0.00 | 0.00 | 0.00 | 70 | 1014.6 |
| 20260905155020 | 94 | 286 | 2.6 | 7.8 | 0.00 | 0.00 | 0.00 | 68 | 1014.8 |
| 20260905154605 | 94 | 281 | 3.5 | 7.8 | 0.00 | 0.00 | 0.00 | 68 | 1014.7 |
| 20260905154018 | 93 | 291 | 3.5 | 8.7 | 0.00 | 0.00 | 0.00 | 70 | 1014.7 |
| 20260905153520 | 92 | 280 | 1.7 | 9.6 | 0.00 | 0.00 | 0.00 | 72 | 1014.5 |
| 20260905153052 | 92 | 201 | 4.3 | 8.7 | 0.00 | 0.00 | 0.00 | 70 | 1014.7 |
| 20260905152524 | 91 | 264 | 1.7 | 7.0 | 0.00 | 0.00 | 0.00 | 73 | 1014.8 |
| 20260905152019 | 92 | 316 | 2.6 | 7.8 | 0.00 | 0.00 | 0.00 | 73 | 1014.7 |
| 20260905151558 | 93 | 322 | 2.6 | 8.7 | 0.00 | 0.00 | 0.00 | 71 | 1014.9 |
| 20260905151020 | 92 | 268 | 1.7 | 8.7 | 0.00 | 0.00 | 0.00 | 72 | 1014.8 |
| 20260905150522 | 92 | 289 | 3.5 | 8.7 | 0.00 | 0.00 | 0.00 | 72 | 1014.9 |
| 20260905150104 | 91 | 244 | 2.6 | 9.6 | 0.00 | 0.00 | 0.00 | 74 | 1014.6 |
| 20260905145521 | 91 | 264 | 2.6 | 9.6 | 0.00 | 0.00 | 0.00 | 73 | 1014.5 |
| 20260905145019 | 91 | 237 | 4.3 | 8.7 | 0.00 | 0.00 | 0.00 | 74 | 1014.7 |
| 20260905144602 | 89 | 251 | 0.9 | 8.7 | 0.00 | 0.00 | 0.00 | 75 | 1014.5 |
| 20260905144019 | 90 | 303 | 3.5 | 8.7 | 0.00 | 0.00 | 0.00 | 75 | 1014.3 |
| 20260905143519 | 90 | 328 | 1.7 | 8.7 | 0.00 | 0.00 | 0.00 | 75 | 1014.3 |
| 20260905143110 | 90 | 252 | 3.5 | 8.7 | 0.00 | 0.00 | 0.00 | 75 | 1014.2 |
| 20260905142520 | 89 | 324 | 2.6 | 7.0 | 0.00 | 0.00 | 0.00 | 77 | 1014.3 |
| 20260905142018 | 89 | 253 | 2.6 | 7.0 | 0.00 | 0.00 | 0.00 | 79 | 1014.3 |
| 20260905141602 | 88 | 312 | 1.7 | 7.0 | 0.00 | 0.00 | 0.00 | 79 | 1014.2 |
| 20260905141017 | 87 | 29 | 0.9 | 7.8 | 0.00 | 0.00 | 0.00 | 79 | 1014.1 |
| 20260905140521 | 88 | 314 | 1.7 | 6.1 | 0.00 | 0.00 | 0.00 | 78 | 1014.2 |
| 20260905140104 | 88 | 278 | 1.7 | 5.2 | 0.00 | 0.00 | 0.00 | 78 | 1014.1 |
| 20260905135519 | 88 | 277 | 0.9 | 3.5 | 0.00 | 0.00 | 0.00 | 80 | 1014.0 |
| 20260905135019 | 86 | 304 | 0.9 | 7.8 | 0.00 | 0.00 | 0.00 | 81 | 1014.2 |
| 20260905134603 | 86 | 295 | 2.6 | 7.8 | 0.00 | 0.00 | 0.00 | 82 | 1014.3 |
| 20260905134023 | 85 | 293 | 1.7 | 7.8 | 0.00 | 0.00 | 0.00 | 82 | 1014.3 |
| 20260905133527 | 85 | 321 | 1.7 | 6.1 | 0.00 | 0.00 | 0.00 | 83 | 1014.2 |
| 20260905133055 | 85 | 248 | 0.9 | 4.3 | 0.00 | 0.00 | 0.00 | 84 | 1014.3 |
| 20260905132520 | 84 | 306 | 0.9 | 7.0 | 0.00 | 0.00 | 0.00 | 84 | 1014.4 |
| 20260905132022 | 84 | 310 | 1.7 | 7.0 | 0.00 | 0.00 | 0.00 | 84 | 1014.5 |
| 20260905131555 | 84 | 261 | 1.7 | 6.1 | 0.00 | 0.00 | 0.00 | 86 | 1014.4 |
| 20260905131018 | 83 | 267 | 0.9 | 7.8 | 0.00 | 0.00 | 0.00 | 86 | 1014.5 |
| 20260905130519 | 83 | 253 | 1.7 | 6.1 | 0.00 | 0.00 | 0.00 | 86 | 1014.5 |
| 20260905125522 | 82 | 256 | 1.7 | 7.8 | 0.00 | 0.00 | 0.00 | 88 | 1014.4 |
| 20260905125019 | 82 | 295 | 1.7 | 7.8 | 0.00 | 0.00 | 0.00 | 89 | 1014.4 |
| 20260905124601 | 82 | 267 | 2.6 | 7.8 | 0.00 | 0.00 | 0.00 | 90 | 1014.5 |
| 20260905124025 | 81 | 292 | 1.7 | 7.0 | 0.00 | 0.00 | 0.00 | 91 | 1014.3 |
| 20260905123523 | 81 | 224 | 2.6 | 7.8 | 0.00 | 0.00 | 0.00 | 91 | 1014.3 |
| 20260905123058 | 80 | 303 | 2.6 | 7.8 | 0.00 | 0.00 | 0.00 | 92 | 1014.4 |
| 20260905122519 | 80 | 330 | 1.7 | 7.8 | 0.00 | 0.00 | 0.00 | 93 | 1014.3 |
| 20260905122019 | 79 | 318 | 1.7 | 8.7 | 0.00 | 0.00 | 0.00 | 93 | 1014.3 |
| 20260905121553 | 79 | 256 | 2.6 | 8.7 | 0.00 | 0.00 | 0.00 | 94 | 1014.3 |
| 20260905121023 | 79 | 232 | 2.6 | 8.7 | 0.00 | 0.00 | 0.00 | 95 | 1014.2 |
| 20260905120520 | 78 | 287 | 1.7 | 8.7 | 0.00 | 0.00 | 0.00 | 94 | 1014.2 |
| 20260905120107 | 78 | 297 | 1.7 | 8.7 | 0.00 | 0.00 | 0.00 | 95 | 1014.3 |
| 20260905115520 | 78 | 272 | 0.9 | 7.0 | 0.00 | 0.00 | 0.00 | 95 | 1014.3 |
| 20260905115019 | 78 | 64 | 0.9 | 7.0 | 0.00 | 0.00 | 0.00 | 95 | 1014.2 |